This demonstration page uses our WeatherBlox Daily Observations layout. Learn more.

Left ArrowRight Arrow

Hourly Observations for May 19, 2018

Temp ( °F °C ) Dew Point ( °F °C ) Humidity (%) Winds ( mph kmh ) Pressure ( in mb ) Visibility ( mi km ) Precip ( " mm )
12:37 am 00:37 Cloudy with Nearby Thunderstorms 63 17.2 59 15 87 87 WNW 8 13 29.91 1013 10 16 0.00 0.03
12:53 am 00:53 Cloudy with Nearby Thunderstorms 63 17.2 60 15.6 90 90 NW 3 6 29.89 1012 6 10 0.02 0.51
1:05 am 01:05 Cloudy with Rain 63 17.2 60 15.6 90 90 NW 5 7 29.91 1013 2 3 0.08 2.03
1:12 am 01:12 Cloudy with Strong Thunderstorms 63 17 61 16 94 94 N 10 17 29.88 1012 1 2 0.00 0.00
1:17 am 01:17 Cloudy with Thunderstorms 63 17 59 15 88 88 N 9 15 29.88 1012 3 5 0.00 0.00
1:50 am 01:50 Cloudy with Nearby Thunderstorms 63 17 61 16 94 94 SSW 12 19 29.91 1013 5 8 0.00 0.00
1:51 am 01:51 Cloudy with Thunderstorms 63 17 61 16 94 94 SSW 12 19 29.91 1013 5 8 0.00 0.00
1:53 am 01:53 Cloudy with Thunderstorms 62 16.7 60 15.6 93 93 VRB 7 11 29.90 1012 3 5 0.34 8.64
1:55 am 01:55 Cloudy with Strong Thunderstorms 62 16.7 60 15.6 93 93 NNW 9 15 29.88 1012 2 3 0.06 1.52
2:03 am 02:03 Cloudy with Thunderstorms 63 17 61 16 94 94 NNE 5 7 29.91 1013 2 3 0.00 0.00
2:06 am 02:06 Cloudy with Nearby Thunderstorms 63 17 61 16 94 94 N 5 7 29.91 1013 3 5 0.00 0.00
2:21 am 02:21 Cloudy with Heavy Rain 61 16 61 16 100 100 SSE 7 11 29.91 1013 2 3 0.00 0.00
2:24 am 02:24 Cloudy with Heavy Rain 61 16 61 16 100 100 SSE 9 15 29.91 1013 2 2 0.00 0.00
2:31 am 02:31 Cloudy with Nearby Thunderstorms 61 16.1 61 16.1 100 100 S 8 13 29.91 1013 2 3 0.34 8.64
2:37 am 02:37 Cloudy with Nearby Thunderstorms 61 16.1 61 16.1 100 100 S 7 11 29.91 1013 3 5 0.38 9.65
2:43 am 02:43 Cloudy with Heavy Rain 61 16.1 61 16.1 100 100 S 3 6 29.91 1013 3 4 0.41 10.41
2:47 am 02:47 Cloudy with Rain 61 16 61 16 100 100 Calm 29.91 1013 3 5 0.42 10.67
2:53 am 02:53 Cloudy with Light Rain 61 16.1 61 16.1 100 100 Calm 29.91 1013 4 6 0.43 10.92
2:58 am 02:58 Cloudy with Light Rain 61 16 61 16 100 100 Calm 29.91 1013 6 10 0.00 0.00
3:53 am 03:53 Cloudy with Light Rain 61 16.1 61 16.1 100 100 N 7 11 29.90 1012 10 16 0.00 0.03
4:53 am 04:53 Cloudy 61 16.1 61 16.1 100 100 NE 9 15 29.88 1012 10 16 0.01 0.25
5:19 am 05:19 Cloudy 60 15.6 60 15.6 100 100 E 9 15 29.88 1012 10 16 0.00 0.00
5:53 am 05:53 Cloudy with Light Rain 61 16.1 60 15.6 97 97 E 12 19 29.87 1012 6 10 0.01 0.25
6:53 am 06:53 Cloudy with Light Rain 61 16.1 60 15.6 97 97 E 14 22 29.87 1012 9 14 0.05 1.27
7:24 am 07:24 Cloudy 61 16 61 16 100 100 E 12 19 29.88 1012 9 14 0.00 0.00
7:43 am 07:43 Cloudy with Mist and Fog 61 16.1 60 15.6 97 97 undefined N/A 29.88 1012 6 10 0.01 0.25
7:53 am 07:53 Cloudy with Mist and Fog 61 16.1 60 15.6 97 97 ENE 12 19 29.87 1012 5 8 0.01 0.25
8:26 am 08:26 Cloudy with Rain 57 14 55 13 94 94 ENE 15 24 29.88 1012 2 3 0.00 0.00
8:45 am 08:45 Cloudy with Light Rain 56 13.3 55 12.8 97 97 NE 16 26 29.88 1012 4 6 0.06 1.52
8:53 am 08:53 Cloudy with Light Rain 56 13.3 55 12.8 97 97 NE 16 26 29.89 1012 5 8 0.06 1.52
9:53 am 09:53 Cloudy 54 12.2 53 11.7 97 97 NNE 15 24 29.91 1013 9 14 0.00 0.03
10:07 am 10:07 Cloudy 54 12.2 53 11.7 97 97 NNE 16 26 29.94 1014 10 16 0.00 0.00
10:53 am 10:53 Cloudy 54 12.2 52 11.1 93 93 NNE 16 26 29.93 1014 9 14 0.00 0.00
11:53 am 11:53 Cloudy 53 11.7 51 10.6 93 93 NNE 14 22 29.97 1015 10 16 0.00 0.00
12:53 pm 12:53 Cloudy 53 11.7 51 10.6 93 93 NNE 13 20 29.99 1016 10 16 0.00 0.00
1:53 pm 13:53 Cloudy 53 11.7 51 10.6 93 93 NNE 14 22 29.99 1016 10 16 0.00 0.00
2:53 pm 14:53 Cloudy 53 11.7 51 10.6 93 93 NNE 14 22 29.99 1016 10 16 0.00 0.00
3:53 pm 15:53 Cloudy 53 11.7 51 10.6 93 93 N 15 24 29.98 1015 10 16 0.00 0.03
4:53 pm 16:53 Cloudy 53 11.7 50 10 89 89 N 17 28 29.98 1015 10 16 0.00 0.00
5:53 pm 17:53 Cloudy 53 11.7 49 9.4 86 86 NNE 18 30 30.00 1016 10 16 0.00 0.00
6:15 pm 18:15 Cloudy 53 11.7 49 9.4 86 86 NE 16 26 30.00 1016 10 16 0.00 0.00
6:53 pm 18:53 Cloudy 53 11.7 49 9.4 86 86 NNE 15 24 30.01 1016 10 16 0.00 0.00
7:53 pm 19:53 Cloudy 52 11.1 49 9.4 89 89 NNE 14 22 30.02 1017 10 16 0.00 0.00
8:18 pm 20:18 Cloudy 52 11.1 49 9.4 89 89 N 10 17 30.03 1017 10 16 0.00 0.00
8:53 pm 20:53 Cloudy 52 11.1 49 9.4 89 89 NE 18 30 30.02 1017 10 16 0.00 0.00
9:53 pm 21:53 Cloudy 52 11.1 50 10 93 93 NNE 14 22 30.05 1018 10 16 0.00 0.00
10:53 pm 22:53 Cloudy 52 11.1 50 10 93 93 NNE 14 22 30.06 1018 10 16 0.00 0.00
11:19 pm 23:19 Cloudy with Thunderstorms 52 11.1 50 10 93 93 WNW 8 13 30.09 1019 6 10 0.02 0.51
11:24 pm 23:24 Cloudy with Strong Thunderstorms 52 11 50 10 94 94 NE 8 13 30.09 1019 2 3 0.00 0.00
11:32 pm 23:32 Cloudy with Rain 52 11 50 10 94 94 NNW 9 15 30.09 1019 2 3 0.00 0.00
11:43 pm 23:43 Cloudy with Heavy Rain 51 10.6 51 10.6 100 100 N 7 11 30.12 1020 2 3 0.37 9.40
11:53 pm 23:53 Cloudy with Rain 51 10.6 50 10 96 96 N 6 9 30.10 1019 3 4 0.41 10.41
11:59 pm 23:59 Cloudy with Rain 51 10.6 51 10.6 100 100 NW 5 7 30.12 1020 3 5 0.02 0.51

Powered by AerisWeather